This is the latest recevied weather packets stored in our database for station/object N3WPH. If no packets are shown the sender has not sent any weather packets the latest 10 day(s).
| Time | Temp. | Humidity | Pressure | Rain* | Wind** | Luminosity | Snow |
|---|---|---|---|---|---|---|---|
| 1777517612 | 10° C | 92% | 1005.9 hPa | 0 mm | - | 0 W/m² | - |
| 1777517310 | 10° C | 93% | 1005.8 hPa | 0 mm | - | 0 W/m² | - |
| 1777517009 | 10° C | 94% | 1006.1 hPa | 0 mm | - | 0 W/m² | - |
| 1777516706 | 10° C | 95% | 1006.3 hPa | 0 mm | - | 0 W/m² | - |
| 1777516402 | 10° C | 96% | 1006.5 hPa | 1.27 mm | - | 0 W/m² | - |
| 1777516098 | 10° C | 96% | 1006.8 hPa | 3.05 mm | - | 0 W/m² | - |
| 1777515795 | 10° C | 97% | 1007.2 hPa | 1.78 mm | - | 0 W/m² | - |
| 1777515491 | 10° C | 97% | 1007.3 hPa | 0 mm | - | 0 W/m² | - |
| 1777515188 | 10° C | 97% | 1007.6 hPa | 1.27 mm | - | 0 W/m² | - |
| 1777514884 | 10° C | 97% | 1008 hPa | 6.1 mm | - | 0 W/m² | - |
| 1777514581 | 10° C | 97% | 1008.2 hPa | 6.1 mm | - | 0 W/m² | - |
| 1777514279 | 10° C | 98% | 1008.1 hPa | 3.05 mm | - | 0 W/m² | - |
| 1777513975 | 10° C | 98% | 1007.7 hPa | 3.05 mm | - | 0 W/m² | - |
| 1777513673 | 10° C | 98% | 1007.8 hPa | 3.05 mm | - | 0 W/m² | - |
| 1777513370 | 10.56° C | 98% | 1007.8 hPa | 3.56 mm | - | 0 W/m² | - |
| 1777513065 | 10.56° C | 98% | 1007.8 hPa | 3.05 mm | - | 0 W/m² | - |
| 1777512761 | 10.56° C | 98% | 1007.7 hPa | 3.05 mm | - | 0 W/m² | - |
| 1777512458 | 10.56° C | 98% | 1007.6 hPa | 1.78 mm | - | 0 W/m² | - |
| 1777512155 | 10.56° C | 97% | 1007.6 hPa | 0 mm | - | 0 W/m² | - |
| 1777511853 | 10.56° C | 97% | 1007.6 hPa | 1.27 mm | - | 0 W/m² | - |
| 1777511550 | 10.56° C | 97% | 1007.4 hPa | 1.27 mm | - | 0 W/m² | - |
| 1777511247 | 10.56° C | 97% | 1007.6 hPa | 0 mm | - | 0 W/m² | - |
| 1777510942 | 10.56° C | 97% | 1007.7 hPa | 1.78 mm | - | 0 W/m² | - |
| 1777510639 | 10.56° C | 97% | 1007.7 hPa | 1.78 mm | - | 0 W/m² | - |
| 1777510336 | 10.56° C | 97% | 1007.7 hPa | 0 mm | - | 0 W/m² | - |
* Rain latest hour (hover to see other rain measurements)
** Current wind speed in m/s (hover to see current wind gust speed)